This is the latest recevied weather packets stored in our database for station/object N9VPV. If no packets are shown the sender has not sent any weather packets the latest 10 day(s).
| Time | Temp. | Humidity | Pressure | Rain* | Wind** | Luminosity | Snow |
|---|---|---|---|---|---|---|---|
| 1777437131 | 11.11° C | 72% | 1014.2 hPa | 0 mm | - | 0 W/m² | - |
| 1777436229 | 11.67° C | 70% | 1014.2 hPa | 0 mm | - | 0 W/m² | - |
| 1777435312 | 11.67° C | 68% | 1013.8 hPa | 0 mm | - | 0 W/m² | - |
| 1777434394 | 12.22° C | 67% | 1013.8 hPa | 0 mm | - | 0 W/m² | - |
| 1777433491 | 12.22° C | 66% | 1013.5 hPa | 0 mm | - | 0 W/m² | - |
| 1777432590 | 12.78° C | 65% | 1013.3 hPa | 0 mm | - | 0 W/m² | - |
| 1777431679 | 12.78° C | 65% | 1013.5 hPa | 0 mm | - | 0 W/m² | - |
| 1777430776 | 13.33° C | 65% | 1013.5 hPa | 0 mm | - | 0 W/m² | - |
| 1777429872 | 13.33° C | 63% | 1013.7 hPa | 0 mm | - | 0 W/m² | - |
| 1777428972 | 13.33° C | 64% | 1013.5 hPa | 0 mm | - | 0 W/m² | - |
| 1777428056 | 13.89° C | 64% | 1013.1 hPa | 0 mm | - | 0 W/m² | - |
| 1777427149 | 13.89° C | 66% | 1012.8 hPa | 0 mm | - | 0 W/m² | - |
| 1777426244 | 13.89° C | 69% | 1012.4 hPa | 0 mm | - | 0 W/m² | - |
| 1777425335 | 13.89° C | 69% | 1012.7 hPa | 0 mm | - | 0 W/m² | - |
| 1777424433 | 14.44° C | 67% | 1012.6 hPa | 0 mm | - | 0 W/m² | - |
| 1777423526 | 15° C | 64% | 1012.5 hPa | 0 mm | - | 0 W/m² | - |
| 1777422611 | 15.56° C | 62% | 1012.1 hPa | 0 mm | - | 0 W/m² | - |
| 1777421707 | 15.56° C | 61% | 1012 hPa | 0 mm | - | 0 W/m² | - |
| 1777420799 | 16.11° C | 59% | 1012.2 hPa | 0 mm | - | 0 W/m² | - |
| 1777419894 | 16.67° C | 59% | 1012.6 hPa | 0 mm | - | 0 W/m² | - |
| 1777418993 | 16.67° C | 56% | 1013 hPa | 0 mm | - | 0 W/m² | - |
| 1777418090 | 16.67° C | 57% | 1013.2 hPa | 0 mm | - | 0 W/m² | - |
| 1777417190 | 17.22° C | 58% | 1013.2 hPa | 0 mm | - | 0 W/m² | - |
| 1777416289 | 17.22° C | 55% | 1013.2 hPa | 0 mm | - | 0 W/m² | - |
| 1777415385 | 17.78° C | 55% | 1013.4 hPa | 0 mm | - | 0 W/m² | - |
* Rain latest hour (hover to see other rain measurements)
** Current wind speed in m/s (hover to see current wind gust speed)